Meteo Giornale » Osservazioni meteo Francia » Le Touquet
ore: 21:30 - Osservazioni Meteo Le Touquet
Lat. 50° 31' N Lon. 1° 37' E Alt. 10 metri s.l.m.
19 °C
Molto Nuvoloso
Temp. 24 Ore
16 °C
20 °C
Ovest
22.2 Km/h
Dew point 15 °C
Umidità 77 %
Visibilità 10 Km
Il sole sorge alle ore 07:06
Il sole tramonta alle ore 20:41
| Data e Ora | Cielo e Fenomeni | T °C | DP °C | Um. % | Pres. hPa | Vis. km | Vento km/h | |
|---|---|---|---|---|---|---|---|---|
| Oggi h: 21:30 | Molto Nuvoloso | 19 | 15 | 77 | 1018 | 10 | O 22.2 | |
| Oggi h: 21:00 | Molto Nuvoloso | 19 | 16 | 82 | 1017 | 10 | O 24 | |
| Oggi h: 20:30 | Coperto | 19 | 16 | 82 | 1017 | 10 | O 18.5 | |
| Oggi h: 20:00 | Coperto | 19 | 16 | 82 | 1017 | 10 | O 20.3 | |
| Oggi h: 19:30 | Molto Nuvoloso | 19 | 16 | 82 | 1016 | 10 | O/SO 20.3 | |
| Oggi h: 19:00 | Coperto | 19 | 16 | 82 | 1016 | 10 | O/SO 25.9 | |
| Oggi h: 18:30 | Coperto | 20 | 16 | 77 | 1016 | 10 | O 22.2 | |
| Oggi h: 18:00 | Coperto | 20 | 16 | 77 | 1016 | 10 | O/SO 24 | |
| Oggi h: 17:30 | Coperto | 20 | 16 | 77 | 1016 | 10 | O 25.9 | |
| Oggi h: 17:00 | Coperto | 20 | 16 | 77 | 1015 | 10 | O 27.8 | |
| Oggi h: 16:30 | Molto Nuvoloso | 20 | 16 | 77 | 1015 | 10 | O 24 | |
| Oggi h: 16:00 | Molto Nuvoloso | 20 | 16 | 77 | 1015 | 10 | O 29.6 | |
| Oggi h: 15:30 | Molto Nuvoloso | 20 | 15 | 72 | 1014 | 10 | O 27.8 | |
| Oggi h: 15:00 | Coperto | 20 | 15 | 72 | 1014 | 10 | O 25.9 | |
| Oggi h: 14:30 | Molto Nuvoloso | 19 | 15 | 77 | 1014 | 10 | O 29.6 | |
| Oggi h: 14:00 | Molto Nuvoloso | 19 | 15 | 77 | 1013 | 10 | O 29.6 | |
| Oggi h: 13:30 | Molto Nuvoloso | 18 | 16 | 88 | 1013 | 10 | O 24 | |
| Oggi h: 13:00 | Molto Nuvoloso | 19 | 16 | 82 | 1012 | 10 | O 24 | |
| Oggi h: 12:30 | Molto Nuvoloso | 18 | 16 | 88 | 1012 | 10 | O 22.2 | |
| Oggi h: 12:00 | Molto Nuvoloso | 18 | 14 | 77 | 1012 | 10 | O 25.9 | |
| Oggi h: 11:30 | Molto Nuvoloso | 19 | 14 | 72 | 1011 | 10 | O 25.9 | |
| Oggi h: 11:00 | Molto Nuvoloso | 19 | 15 | 77 | 1011 | 10 | O 22.2 | |
| Oggi h: 10:30 | Molto Nuvoloso | 18 | 14 | 77 | 1010 | 10 | O 22.2 | |
| Oggi h: 10:00 | Pioggia | 17 | 14 | 82 | 1010 | 10 | O 22.2 | |
| Oggi h: 09:30 | Molto Nuvoloso | 18 | 15 | 82 | 1010 | 10 | O 20.3 | |
| Oggi h: 09:00 | Molto Nuvoloso | 18 | 15 | 82 | 1009 | 10 | O 24 | |
| Oggi h: 08:30 | Molto Nuvoloso | 16 | 14 | 87 | 1009 | 10 | O 22.2 | |
| Oggi h: 08:00 | Sereno | 18 | 14 | 77 | 1009 | 10 | O 22.2 | |
| Oggi h: 07:30 | Molto Nuvoloso | 18 | 14 | 77 | 1009 | 10 | O 24 | |
| Oggi h: 07:00 | Coperto | 17 | 14 | 82 | 1008 | 10 | O/SO 25.9 | |
| Oggi h: 06:30 | Pioviggine | 17 | 16 | 93 | 1008 | 10 | SO 24 | |
| Oggi h: 06:00 | Temporale | 17 | 15 | 88 | 1008 | 6 | O 18.5 | |
| Oggi h: 05:30 | Molto Nuvoloso | 17 | 15 | 88 | 1008 | 10 | SO 22.2 | |
| Oggi h: 05:00 | Pioggia | 17 | 16 | 93 | 1008 | 10 | SO 24 | |
| Oggi h: 04:30 | Molto Nuvoloso | 18 | 15 | 82 | 1008 | 10 | S/SO 22.2 | |
| Oggi h: 04:00 | Molto Nuvoloso | 18 | 15 | 82 | 1008 | 10 | SO 24 | |
| Oggi h: 03:30 | Molto Nuvoloso | 18 | 16 | 88 | 1008 | 10 | SO 20.3 | |
| Oggi h: 03:00 | Molto Nuvoloso | 19 | 15 | 77 | 1009 | 10 | O/SO 18.5 | |
| Oggi h: 02:30 | Molto Nuvoloso | 19 | 14 | 72 | 1009 | 10 | O/SO 25.9 | |
| Oggi h: 02:00 | Molto Nuvoloso | 19 | 15 | 77 | 1009 | 10 | O/SO 27.8 | |
| Oggi h: 01:30 | Molto Nuvoloso | 19 | 16 | 82 | 1009 | 10 | O/SO 27.8 | |
| Oggi h: 01:00 | Molto Nuvoloso | 19 | 16 | 82 | 1009 | 10 | SO 20.3 | |
| Oggi h: 00:30 | Molto Nuvoloso | 18 | 16 | 88 | 1009 | 10 | S/SO 13 | |
| Oggi h: 00:00 | Sereno | 18 | 16 | 88 | 1009 | 10 | S/SO 11.1 | |
| Ieri h: 23:30 | Sereno | 17 | 16 | 93 | 1009 | 10 | S/SO 9.3 | |
| Ieri h: 23:00 | Coperto | 17 | 15 | 88 | 1009 | 10 | SO 11.1 | |



